Wetbulb
54.47 54.50 54.54 54.56 54.35 54.30 54.73 54.98 55.14 54.96 54.69 54.60 54.42 54.79 55.17 55.66 55.92 57.35 55.04 58.85 61.54 63.61 65.78 64.12 64.92 63.31 62.34 59.26 59.10 60.01 53.94 52.17 54.14 54.24 54.64 58.78 57.80 60.03 61.00 59.73 60.43 61.44 61.28 62.86 64.71
54.21 54.17 54.35 54.35 54.29 54.04 54.04 54.23 54.52 54.92 54.83 54.77 54.61 54.41 54.83 55.39 54.68 53.55 60.83 63.92 65.17 65.14 56.47 58.39 59.64 60.17 59.58 59.36 58.79 56.39 54.04 54.46 57.82 57.93 56.95 58.74 58.66 59.22 58.87 58.86 59.03 60.02 62.46 63.75 64.15
53.16 53.58 53.68 53.69 54.06 53.99 53.66 53.70 53.94 54.08 54.29 54.74 54.60 54.28 54.01 55.15 52.48 52.15 61.64 63.59 64.61 64.97 55.09 57.35 60.77 59.44 56.61 59.32 58.18 57.20 54.20 58.15 58.83 59.56 59.88 58.92 58.85 60.38 58.74 57.47 59.49 58.81 60.82 62.47 62.97
52.41 53.02 53.34 53.59 53.90 53.83 53.70 53.45 53.34 53.97 54.08 54.05 54.29 54.36 54.05 54.58 44.98 58.74 59.65 60.47 61.50 60.33 55.25 53.47 54.52 56.37 54.76 54.17 58.37 55.66 58.24 58.92 59.27 59.87 58.90 58.38 59.57 58.55 59.41 59.62 61.79 61.31 62.11 62.49 62.14
52.79 53.27 53.23 53.42 53.67 53.73 53.78 53.73 53.80 53.94 54.00 53.98 53.93 54.29 53.56 49.66 50.38 57.69 62.17 62.45 58.74 60.55 58.23 53.74 52.41 54.14 54.29 54.85 56.27 55.59 56.74 58.07 59.20 59.16 58.87 59.21 58.16 58.09 58.99 61.15 62.18 61.99 61.92 61.61 61.99
52.88 53.06 53.17 53.37 53.54 53.52 54.06 54.18 54.03 53.91 53.68 53.87 54.12 53.72 51.18 43.37 54.71 56.04 56.28 56.12 56.65 56.68 58.80 56.15 54.79 56.68 55.87 56.08 55.09 56.70 56.73 56.82 57.62 57.45 57.94 56.63 57.60 58.38 59.23 61.39 60.99 60.45 60.66 61.47 61.39
52.24 52.49 52.60 53.14 53.30 53.18 54.06 53.76 53.60 53.84 53.68 54.02 54.25 53.97 49.17 47.40 54.41 55.07 55.26 54.62 55.11 55.45 53.59 58.28 57.74 55.47 56.62 55.14 58.12 57.07 54.37 55.92 56.59 57.01 56.23 57.59 54.59 55.56 59.27 59.99 59.37 59.95 59.95 60.61 61.21
52.36 53.15 53.04 52.98 53.09 53.54 53.34 53.56 53.62 53.57 53.88 54.44 54.62 53.36 45.15 53.33 54.44 52.94 53.71 52.95 54.63 55.43 55.18 56.06 58.04 56.52 55.24 56.50 55.29 53.10 54.10 50.57 55.23 56.30 56.54 55.94 50.77 56.09 59.16 58.60 58.64 58.87 58.98 59.68 60.59
53.25 53.25 52.90 52.84 53.09 53.15 53.50 53.24 53.29 53.81 54.12 54.40 53.10 50.70 45.22 55.65 51.17 53.23 53.15 50.39 52.39 54.30 55.20 55.01 54.29 52.46 53.58 50.30 49.74 52.04 47.91 50.14 51.75 56.19 55.74 54.69 52.50 56.54 58.66 58.34 58.23 58.59 59.10 58.96 60.10
53.06 52.73 52.81 52.77 52.77 53.08 52.94 52.38 54.09 52.81 53.88 55.50 54.01 47.19 49.95 46.01 49.18 52.04 54.58 53.40 51.57 51.68 51.62 51.25 50.03 47.59 49.14 48.56 43.32 46.54 47.81 49.58 49.53 53.64 54.36 53.16 52.94 55.89 57.50 56.58 56.72 58.14 58.82 58.93 59.37
52.44 52.71 52.58 52.83 52.71 52.61 52.07 53.47 50.08 49.08 51.83 47.51 46.23 46.55 47.45 50.02 51.07 49.08 51.15 50.65 51.84 49.88 45.68 49.58 45.13 42.91 46.11 48.76 49.79 49.67 49.16 48.88 51.53 54.50 52.66 52.24 52.73 54.91 56.20 56.28 56.34 57.42 58.38 58.77 59.08
52.40 52.08 52.29 52.63 52.73 52.38 52.63 48.47 48.44 49.17 42.57 48.16 47.59 47.41 48.77 49.54 44.55 47.03 50.40 46.11 46.69 44.16 46.66 46.64 43.07 47.48 48.61 49.03 48.62 48.25 47.56 48.22 51.60 53.75 52.73 52.63 52.20 54.81 55.98 55.95 57.01 57.08 57.96 58.66 59.44
52.67 52.48 52.04 52.35 51.88 51.97 50.83 49.46 53.42 52.49 41.53 44.16 46.80 46.08 47.04 49.17 45.10 45.48 48.18 46.22 43.62 44.23 45.17 43.05 46.17 48.75 47.47 46.87 46.53 47.61 46.89 47.81 48.45 51.72 53.21 51.57 49.68 51.53 54.58 56.13 56.55 57.15 58.26 58.94 59.51
52.29 52.37 52.37 51.74 49.24 51.86 48.87 52.09 53.32 52.60 36.48 39.50 43.44 46.53 48.44 49.02 44.82 50.89 50.62 46.93 43.58 41.21 44.96 44.86 47.54 47.32 46.58 45.64 47.19 44.51 49.76 49.40 49.04 48.08 44.31 50.89 43.30 49.70 52.65 53.70 55.14 56.34 57.90 58.94 59.54
52.19 52.20 52.04 50.67 50.29 48.75 50.39 53.41 53.42 49.55 24.81 40.41 43.37 51.71 48.05 45.00 45.95 47.38 52.41 48.61 41.46 41.88 42.73 42.28 45.02 44.86 45.16 46.11 48.20 46.53 49.73 49.39 49.41 47.14 46.98 46.76 44.28 47.60 51.81 51.23 53.53 56.03 57.24 58.74 59.33
51.87 51.58 50.82 52.51 51.83 51.81 53.89 52.90 50.57 34.10 25.22 37.51 42.70 42.09 42.52 43.79 45.09 45.73 46.93 50.34 48.96 43.50 43.54 43.68 48.18 47.76 46.58 48.61 49.17 49.71 48.25 48.86 49.34 47.33 41.45 45.72 44.73 45.92 49.09 51.85 54.26 56.29 57.36 58.46 59.60
51.80 50.74 50.91 53.23 48.89 53.83 53.12 46.98 33.01 28.04 38.08 35.03 36.60 39.78 39.28 39.74 40.48 42.70 41.49 40.93 40.57 37.38 37.20 41.16 43.21 47.29 48.92 45.96 48.96 48.66 46.37 40.71 39.87 39.74 40.10 46.94 45.18 47.42 52.87 54.64 55.19 55.86 56.84 58.19 60.72
50.82 49.54 50.51 52.84 53.35 53.45 50.05 39.38 27.87 34.25 34.96 39.86 38.35 38.83 36.15 38.58 39.23 39.48 39.88 38.05 41.75 41.66 39.08 36.21 34.53 42.94 47.80 46.36 45.58 46.44 46.34 41.37 35.42 38.57 41.25 47.49 43.49 48.26 54.81 55.00 56.18 57.40 57.79 60.42 62.05
49.20 53.43 51.16 53.39 54.29 51.54 42.66 33.15 32.36 35.39 38.61 36.98 38.18 34.62 35.39 38.20 37.98 37.66 37.98 37.81 40.41 40.25 34.86 38.18 37.20 44.39 46.82 48.32 47.62 45.96 44.24 48.79 44.76 46.99 43.60 46.88 49.52 53.16 54.98 55.09 54.71 56.14 57.07 59.97 62.19
50.89 50.48 50.59 53.82 54.48 50.32 41.40 33.32 36.45 40.12 40.09 39.28 32.51 35.81 32.35 35.72 35.38 36.24 36.33 39.71 37.96 41.21 41.74 40.70 36.77 42.88 46.16 47.99 48.21 47.71 49.71 43.08 45.58 38.55 39.08 44.43 46.79 47.76 51.37 52.66 54.52 56.48 56.82 60.00 62.62
50.09 46.10 51.31 54.20 53.36 45.35 36.01 36.55 38.88 41.64 41.33 37.89 35.46 34.54 35.58 34.53 36.33 35.79 35.51 39.31 40.19 40.52 42.03 42.07 39.28 42.10 44.33 44.66 43.69 44.79 45.18 46.49 47.25 45.88 41.52 40.94 45.20 54.18 53.41 54.25 55.07 57.44 59.14 61.26 62.14
49.27 42.33 51.19 54.93 42.13 43.58 37.74 38.83 39.94 40.31 42.11 40.33 39.76 37.69 36.36 36.60 34.93 35.69 34.97 38.34 41.28 42.02 38.67 43.62 40.36 38.48 42.14 47.34 48.44 47.54 46.84 47.20 43.89 43.32 45.73 46.07 45.21 54.18 55.20 56.44 56.56 57.71 60.50 62.20 62.86
45.72 47.03 52.04 50.42 37.15 36.37 39.92 39.18 40.68 39.35 39.82 38.80 37.21 39.33 40.66 37.33 33.72 37.43 38.45 41.84 41.17 39.70 38.95 42.18 39.91 35.69 38.53 45.22 46.99 45.21 47.34 49.23 49.09 49.58 45.24 43.51 45.73 54.86 56.09 56.59 57.78 58.94 60.63 61.64 62.08
46.39 41.64 46.52 48.81 42.75 38.21 36.01 37.30 36.87 41.09 40.05 41.25 38.99 39.72 37.81 36.74 39.58 35.62 37.18 39.43 41.40 40.93 42.68 41.17 40.16 39.16 34.62 41.21 44.98 43.47 45.74 48.36 48.52 45.03 45.82 46.03 47.94 50.91 54.30 55.74 57.53 59.62 61.11 61.27 61.73
47.96 42.87 42.92 38.17 39.85 37.96 37.05 37.21 35.64 35.17 39.77 41.65 39.16 38.06 37.25 34.49 36.18 35.96 37.54 39.68 39.74 41.38 41.19 40.19 37.40 40.77 39.85 41.85 43.96 45.43 45.78 47.60 46.77 48.30 46.24 47.71 47.96 51.43 55.27 56.13 57.97 60.02 60.49 60.78 61.28
43.05 41.42 43.76 40.53 40.30 37.24 38.17 36.82 35.88 37.68 37.32 37.09 36.85 39.20 39.75 36.15 37.51 35.24 37.27 38.84 36.92 40.33 40.40 42.36 38.42 40.28 36.09 40.43 43.85 44.30 45.81 47.23 48.20 48.27 48.62 49.11 48.53 53.71 56.48 56.24 56.43 57.43 59.43 60.22 61.00
48.37 46.91 42.02 39.13 39.74 36.36 37.30 37.36 36.37 38.24 40.18 40.71 39.35 39.45 38.50 39.98 42.89 43.29 43.81 43.57 42.23 39.85 38.92 38.14 40.24 37.08 33.21 40.52 42.18 40.66 45.70 46.80 47.52 49.67 49.30 46.27 50.04 53.10 52.79 53.81 55.69 57.70 58.16 60.06 61.51
MSLP
1021.04 1020.78 1020.56 1020.23 1020.03 1019.98 1019.57 1019.10 1018.62 1018.37 1017.63 1017.50 1017.46 1017.17 1016.45 1015.81 1014.94 1013.71 1011.78 1009.69 1009.56 1010.40 1010.99 1009.94 1009.52 1009.00 1008.95 1008.05 1007.46 1006.53 1005.27 1003.20 1002.07 1001.14 1000.61 1000.25 1000.13 1000.12 1000.59 1001.28 1001.07 1000.98 1001.09 1001.24 1001.47
1021.14 1020.88 1020.59 1020.30 1020.01 1019.54 1019.25 1018.91 1018.57 1018.35 1017.70 1017.69 1017.26 1016.56 1016.11 1015.57 1014.26 1011.50 1009.34 1009.44 1009.69 1010.17 1010.18 1008.85 1008.42 1008.29 1007.78 1007.11 1006.56 1005.80 1004.29 1002.88 1002.03 1000.96 1000.53 1000.32 1000.06 1000.09 1000.30 1000.49 1000.90 1000.82 1000.85 1000.81 1000.80
1021.15 1020.63 1020.20 1019.84 1019.56 1019.35 1019.03 1018.73 1018.37 1018.14 1017.61 1017.52 1016.96 1016.79 1016.32 1015.45 1012.51 1008.68 1009.20 1009.05 1009.77 1010.15 1009.46 1008.12 1007.60 1007.15 1006.55 1005.92 1005.22 1004.57 1003.05 1002.72 1001.83 1000.95 1000.54 1000.20 1000.28 1000.24 1000.31 1000.21 1000.45 1000.29 1000.46 1000.89 1001.14
1021.30 1020.83 1020.40 1019.93 1019.47 1019.09 1018.86 1018.59 1018.44 1018.32 1017.75 1017.59 1017.09 1016.83 1016.27 1014.90 1010.39 1008.65 1009.59 1009.65 1010.00 1009.93 1009.65 1008.16 1007.24 1006.12 1005.17 1004.41 1004.06 1003.15 1002.47 1002.41 1001.71 1001.19 1000.73 1000.10 999.99 999.95 999.99 1000.04 1000.37 1000.24 1000.59 1000.84 1000.83
1021.43 1021.06 1020.67 1020.23 1019.71 1019.19 1018.73 1018.39 1018.17 1017.83 1017.53 1017.24 1017.01 1016.73 1015.51 1012.56 1009.26 1007.84 1009.02 1008.96 1008.82 1008.35 1008.29 1007.43 1006.22 1005.27 1003.46 1003.38 1003.26 1001.64 1001.63 1001.67 1001.19 1001.10 1000.69 1000.37 999.56 999.56 999.34 999.86 1000.07 999.99 1000.23 1000.47 1000.15
1021.52 1021.11 1020.67 1020.17 1019.64 1019.14 1018.65 1018.12 1017.56 1017.09 1016.91 1016.85 1016.68 1016.86 1015.44 1011.62 1008.83 1008.56 1008.60 1008.54 1008.28 1007.54 1006.66 1006.54 1004.89 1004.12 1003.11 1002.44 1002.07 1001.83 1001.37 1000.85 1000.69 1000.35 1000.18 999.84 999.16 999.38 999.34 999.93 999.59 999.56 999.63 999.76 999.39
1021.58 1021.16 1020.70 1020.16 1019.58 1018.99 1018.39 1017.81 1017.27 1016.75 1016.36 1016.31 1016.55 1016.10 1013.55 1010.40 1009.18 1008.77 1008.64 1008.20 1007.80 1007.37 1006.61 1005.48 1005.03 1004.07 1002.84 1001.81 1001.90 1001.54 1000.91 1000.60 999.97 999.97 999.54 999.79 998.35 998.44 999.08 999.17 998.94 998.80 998.79 998.91 998.64
1021.39 1020.87 1020.38 1019.86 1019.32 1018.73 1018.15 1017.50 1016.86 1016.34 1015.93 1015.78 1015.56 1014.81 1011.92 1009.74 1008.90 1008.57 1008.29 1007.68 1007.58 1007.49 1007.12 1006.47 1004.99 1004.01 1003.03 1002.74 1001.74 1001.28 1000.95 999.40 999.32 999.44 999.41 999.98 996.15 998.52 998.86 998.50 998.07 997.65 997.72 997.53 998.05
1021.32 1020.85 1020.37 1019.81 1019.16 1018.43 1017.63 1016.46 1015.72 1015.30 1014.99 1014.93 1014.59 1013.50 1010.04 1008.44 1008.69 1008.01 1007.97 1007.36 1006.96 1006.59 1006.64 1006.82 1005.98 1004.33 1003.81 1002.69 1001.61 1000.43 998.95 998.23 998.66 998.75 998.56 998.56 995.91 997.60 998.25 998.26 997.79 997.65 997.00 997.39 997.65
1021.08 1020.59 1020.04 1019.40 1018.77 1018.01 1017.15 1015.51 1014.30 1014.68 1014.20 1013.27 1012.55 1012.04 1008.98 1007.63 1006.86 1007.34 1007.02 1006.91 1006.60 1006.18 1005.74 1006.05 1005.61 1004.33 1003.05 1001.48 998.70 998.72 998.28 998.61 997.69 997.96 997.71 997.23 995.84 996.59 996.90 997.21 997.21 996.49 996.16 996.51 996.86
1020.79 1020.30 1019.76 1019.15 1018.36 1017.53 1016.39 1013.16 1012.96 1012.46 1011.60 1010.39 1009.47 1008.85 1007.16 1006.79 1006.92 1006.73 1006.71 1006.43 1006.43 1005.84 1004.36 1004.50 1004.48 1001.40 998.49 999.30 998.95 998.92 998.37 997.35 996.95 996.94 997.08 996.37 995.81 995.43 996.38 996.67 996.22 995.76 995.47 995.69 996.27
1020.70 1020.02 1019.32 1018.67 1017.88 1017.12 1016.21 1013.60 1013.05 1013.38 1011.58 1009.97 1008.64 1007.49 1007.14 1006.95 1006.34 1006.27 1006.65 1006.17 1005.48 1004.61 1004.57 1003.54 1001.12 997.33 1000.70 999.61 999.44 998.98 998.13 996.81 996.83 996.40 996.34 995.71 995.04 994.95 995.22 995.44 995.43 995.35 994.79 994.78 995.36
1020.51 1019.88 1019.21 1018.54 1017.60 1016.37 1014.58 1013.63 1013.49 1012.95 1011.92 1008.72 1006.53 1005.33 1005.28 1005.75 1005.19 1005.19 1005.38 1005.26 1004.62 1003.57 1002.90 1001.49 997.32 1000.95 999.38 998.83 998.34 997.59 997.34 997.23 996.62 996.73 996.19 995.88 994.79 994.46 994.83 995.06 995.11 994.82 994.60 994.60 994.49
1020.32 1019.75 1019.08 1018.41 1017.14 1014.95 1013.62 1013.88 1013.35 1013.08 1011.17 1005.62 1005.04 1004.66 1005.07 1004.96 1004.48 1004.49 1004.09 1004.12 1003.73 1002.85 1001.95 1000.47 999.59 998.66 998.53 997.48 997.19 996.23 996.97 997.24 997.11 996.91 995.73 996.23 993.44 993.70 993.83 993.55 993.70 993.65 993.38 993.12 993.33
1020.00 1019.30 1018.68 1018.52 1017.16 1014.98 1014.56 1013.90 1013.59 1013.71 1009.90 1005.12 1004.55 1004.75 1004.26 1004.13 1003.70 1003.16 1003.27 1003.69 1003.14 1002.18 1002.32 998.42 998.78 998.07 997.08 995.12 997.11 994.36 996.76 996.52 996.82 996.85 996.65 995.63 994.60 993.05 993.26 992.57 992.60 992.42 992.41 992.32 992.46
1019.75 1019.03 1018.33 1016.02 1016.25 1015.42 1014.24 1014.08 1014.01 1013.32 1008.22 1005.33 1004.87 1005.02 1003.85 1003.34 1003.54 1003.39 1003.63 1003.24 1003.11 1002.53 1001.11 999.26 998.70 997.27 996.35 996.51 995.90 996.39 996.24 996.15 996.26 996.40 995.38 994.74 994.53 991.90 991.80 991.62 991.10 991.07 991.08 991.23 991.39
1019.32 1018.76 1018.20 1016.60 1015.49 1015.37 1014.94 1014.12 1013.56 1010.77 1008.34 1007.43 1007.13 1006.46 1006.26 1004.00 1003.13 1003.02 1003.16 1002.82 1002.39 1002.01 1001.12 999.75 998.36 997.04 996.05 995.68 995.57 995.19 995.38 995.16 995.32 994.73 992.39 993.82 993.04 990.84 990.88 990.60 990.31 990.13 990.53 990.66 991.02
1018.95 1018.29 1017.39 1016.57 1016.11 1015.77 1015.04 1014.20 1011.96 1009.61 1008.54 1007.70 1007.01 1006.11 1005.20 1004.47 1003.40 1002.81 1003.00 1002.91 1002.47 1002.30 1001.65 999.42 998.10 996.83 994.99 994.00 993.63 993.84 993.80 992.86 992.24 992.16 992.23 992.32 990.86 990.00 989.81 989.88 989.68 989.89 990.30 990.81 992.11
1018.13 1016.38 1016.24 1015.89 1015.88 1015.98 1015.57 1013.21 1010.46 1009.93 1009.50 1008.88 1008.11 1007.21 1005.44 1004.10 1003.61 1003.31 1003.19 1003.23 1003.89 1004.90 1004.65 1000.55 996.90 996.09 995.26 994.42 993.96 992.57 992.50 991.58 992.45 991.03 990.54 989.35 989.22 989.61 989.19 989.12 989.29 989.23 990.13 990.91 992.38
1017.77 1015.53 1015.31 1015.69 1015.99 1015.33 1014.46 1012.48 1010.31 1009.92 1009.86 1009.40 1008.45 1008.17 1006.46 1004.86 1004.72 1004.07 1003.78 1005.21 1005.42 1005.53 1005.80 1002.72 998.47 995.52 994.10 994.59 993.26 991.62 991.74 992.76 991.96 990.70 989.30 988.89 987.94 987.93 987.98 987.98 988.76 989.00 989.93 991.02 992.65
1017.53 1015.03 1015.21 1015.45 1015.48 1014.59 1013.72 1011.72 1010.70 1010.50 1010.01 1009.88 1009.10 1008.23 1007.15 1006.44 1005.57 1004.77 1004.54 1005.61 1006.34 1005.56 1005.11 1003.68 1001.15 996.24 994.41 992.10 991.76 991.15 990.41 991.07 991.27 990.16 989.10 988.53 987.65 987.57 987.65 987.94 988.38 988.76 989.76 991.27 992.62
1016.11 1013.83 1014.81 1015.02 1015.32 1014.50 1013.30 1012.40 1011.90 1010.29 1009.60 1009.08 1009.26 1008.89 1007.91 1007.20 1006.42 1005.23 1005.26 1005.62 1006.32 1005.84 1004.82 1002.94 1001.66 997.32 993.61 992.16 991.86 990.93 990.11 990.53 989.59 989.29 989.00 987.92 987.81 988.15 988.36 987.78 988.20 988.52 989.79 991.30 992.44
1015.85 1014.12 1014.40 1014.81 1014.68 1014.36 1013.49 1012.37 1010.91 1010.39 1009.64 1009.13 1008.86 1008.88 1008.16 1007.41 1006.52 1005.05 1005.39 1006.86 1007.53 1006.97 1006.02 1004.44 1001.58 997.91 995.55 993.12 991.28 989.99 989.69 989.66 990.32 989.42 988.78 987.82 987.57 988.50 988.25 988.34 988.69 989.04 990.44 991.57 992.45
1016.10 1013.61 1013.08 1013.78 1014.69 1014.80 1014.04 1012.60 1011.60 1011.27 1010.87 1009.81 1009.28 1008.74 1008.56 1007.23 1006.28 1005.98 1005.84 1007.11 1007.24 1007.06 1006.76 1006.18 1002.78 998.53 997.05 994.00 991.49 989.86 989.02 988.79 989.11 988.77 988.25 987.98 987.87 988.22 988.19 988.62 989.16 989.89 990.88 991.75 992.67
1016.17 1014.88 1015.80 1014.53 1014.64 1014.98 1014.78 1013.26 1012.25 1011.80 1011.58 1010.29 1008.96 1008.22 1007.99 1006.99 1005.97 1005.76 1006.41 1005.92 1006.85 1006.42 1006.31 1005.53 1002.19 999.39 998.17 996.71 993.25 989.93 988.48 987.83 988.15 988.33 987.61 988.05 987.93 987.97 988.26 989.12 989.83 990.49 991.24 992.02 992.63
1017.69 1017.24 1016.45 1015.90 1015.34 1014.90 1013.85 1013.02 1012.03 1011.79 1011.84 1010.37 1009.55 1008.64 1007.68 1006.88 1006.08 1005.65 1005.81 1005.39 1005.79 1005.67 1005.53 1004.55 1002.14 1000.41 1000.04 998.29 994.44 989.50 988.78 988.10 988.13 988.76 988.36 987.73 988.33 988.25 988.90 989.59 990.13 990.68 991.33 991.96 992.50
1018.79 1018.55 1018.26 1016.30 1014.52 1014.49 1013.75 1013.28 1012.91 1012.22 1011.25 1010.76 1009.74 1008.65 1007.39 1006.59 1006.21 1005.64 1005.11 1004.74 1004.51 1004.04 1004.08 1003.85 1002.22 1001.57 999.98 998.00 994.37 990.35 988.48 987.94 988.34 989.01 988.85 988.63 988.99 988.96 989.54 990.42 990.61 991.08 991.56 991.76 992.25
Wind_Speed
15 14 14 15 15 15 15 15 14 14 15 16 17 18 18 20 22 19 17 9 9 16 9 10 14 16 14 19 24 17 16 17 22 21 16 14 16 10 2 11 14 10 18 17 16
17 16 15 14 14 14 15 16 16 17 15 15 16 19 20 19 21 22 15 10 9 13 15 18 18 17 17 19 20 20 18 24 23 19 16 19 18 17 16 13 17 15 19 18 11
18 19 19 19 17 16 16 16 16 16 16 16 15 17 19 21 15 12 15 5 9 13 21 19 19 20 24 24 24 25 24 23 24 24 20 21 24 20 21 22 21 20 19 18 20
17 17 18 19 20 20 18 17 15 16 15 15 15 15 18 12 11 9 6 5 1 13 22 22 25 28 27 28 27 29 29 26 26 27 26 30 28 30 25 25 22 19 19 18 22
15 16 16 18 19 19 20 19 18 17 15 15 14 14 14 11 16 8 9 10 12 14 22 26 30 30 34 28 28 33 31 31 30 30 33 33 34 31 32 25 25 25 21 20 21
17 17 17 18 19 19 18 18 18 19 19 16 13 11 15 23 11 9 12 13 14 14 16 23 29 28 33 33 33 30 33 34 34 34 34 33 35 30 27 25 29 26 22 23 22
17 16 17 18 18 19 18 18 19 20 21 18 16 13 16 22 16 16 14 16 16 15 17 17 23 30 28 34 31 33 36 34 34 30 31 24 33 36 28 26 27 29 23 25 20
18 17 19 20 20 19 19 19 21 22 23 20 14 14 13 15 17 22 21 22 20 19 19 20 17 25 29 24 27 33 34 31 30 32 30 27 37 28 26 26 27 22 20 17 18
16 17 18 19 20 21 22 26 27 22 16 10 11 13 19 4 16 14 20 18 18 20 18 17 18 20 21 26 22 27 28 36 31 28 25 29 40 28 25 26 26 29 23 15 19
18 17 18 19 19 20 21 31 18 9 11 11 12 8 14 14 5 3 3 11 14 17 21 20 17 20 21 23 29 29 33 30 33 25 26 33 36 30 23 23 25 29 20 19 22
21 19 18 18 20 21 20 17 3 10 14 13 14 14 22 7 10 15 10 10 12 14 25 25 20 29 43 36 32 29 27 31 32 27 29 31 31 24 21 26 26 26 25 18 24
22 22 22 21 21 22 16 11 10 8 14 21 24 27 24 24 24 20 16 16 17 20 22 25 32 47 25 32 32 33 32 33 28 24 23 27 27 27 24 25 24 28 28 23 22
20 21 22 21 21 15 10 11 8 10 10 24 23 19 15 15 21 21 21 22 24 23 25 31 44 24 32 30 32 33 33 29 30 23 22 23 27 29 26 25 26 28 28 26 26
21 20 20 20 16 13 9 7 9 8 9 21 13 9 10 7 9 12 16 20 26 29 23 28 33 33 32 35 34 33 29 27 25 21 20 21 25 25 20 23 24 25 22 21 20
22 22 20 11 12 8 11 9 10 3 8 5 9 7 3 9 1 7 3 14 21 24 25 32 28 33 36 42 32 36 25 26 26 21 23 26 21 16 20 21 21 21 22 23 21
23 22 17 3 9 10 11 7 4 7 6 3 3 10 9 8 10 5 10 13 13 19 28 31 28 28 39 32 28 29 27 25 20 18 22 23 22 19 22 20 21 20 20 19 19
25 21 11 7 9 12 11 6 6 8 2 8 13 7 14 21 15 10 9 13 14 17 22 29 30 27 29 32 35 28 26 16 18 19 22 16 21 21 19 20 18 15 16 12 7
25 22 6 5 8 7 7 5 7 13 12 18 17 19 19 17 20 13 12 15 18 15 19 23 28 34 28 28 35 32 29 17 29 14 17 23 18 13 16 5 8 15 10 8 9
29 8 3 6 7 3 6 7 9 13 16 14 19 16 20 14 19 10 16 13 5 5 8 17 28 30 34 24 27 39 30 33 24 20 14 15 17 19 17 16 8 10 16 12 11
10 5 1 6 5 7 5 8 11 12 12 17 20 12 14 21 9 13 15 5 3 8 4 17 21 29 27 30 33 32 27 24 22 26 19 13 11 8 5 10 12 12 16 14 14
9 2 6 6 6 5 5 11 15 15 13 10 20 20 18 11 12 17 3 7 6 12 9 20 6 20 34 32 31 25 25 29 21 20 14 12 12 7 4 4 15 14 16 16 17
7 4 6 2 4 3 7 18 16 20 14 18 11 16 17 15 13 11 9 5 3 10 10 12 8 16 22 28 31 31 29 30 18 24 17 12 4 5 9 10 13 8 12 17 17
7 3 7 2 5 8 13 18 15 15 16 16 11 13 17 16 11 8 8 9 8 6 5 7 12 14 6 16 31 31 32 26 28 18 19 11 6 7 7 3 4 10 14 16 18
6 4 3 1 3 8 14 16 15 7 18 15 19 5 9 16 11 8 9 2 7 13 14 7 13 19 6 10 21 30 34 30 27 17 18 18 14 13 13 10 7 12 15 16 16
3 6 5 6 8 11 14 17 16 12 9 17 11 10 14 17 17 9 9 10 4 7 5 5 18 23 4 22 28 27 30 27 31 22 16 20 11 12 16 14 11 12 13 15 17
6 6 8 13 8 11 11 14 14 19 9 13 14 20 16 16 16 16 12 9 7 2 6 6 13 19 9 20 29 19 29 25 26 20 19 13 16 10 15 12 10 10 13 15 16
2 5 3 11 8 6 9 14 20 18 10 13 16 18 16 15 17 20 19 16 15 15 11 9 11 3 6 18 25 16 22 28 22 25 17 11 9 10 5 5 4 11 3 13 15
Wind_Direction
357 358 354 351 350 346 344 341 337 336 343 339 333 331 330 322 308 265 246 249 194 164 209 200 222 209 226 233 232 232 256 252 248 251 266 271 245 255 193 290 297 287 302 298 296
353 351 350 350 345 345 342 338 336 334 333 329 333 334 328 323 300 273 255 148 146 169 212 217 212 215 218 226 231 230 238 243 263 265 266 274 285 294 276 258 272 268 279 285 308
347 346 345 344 342 340 337 333 332 329 328 325 329 327 321 312 286 258 25 108 171 197 242 236 233 215 232 228 223 229 241 254 263 271 272 271 273 276 276 273 279 289 294 300 296
343 343 341 338 335 333 332 329 325 318 318 315 318 315 312 298 258 79 65 56 267 237 241 237 237 236 231 235 231 242 239 248 260 265 273 273 277 283 267 273 280 289 285 286 289
338 338 339 332 328 325 323 320 318 313 307 306 305 310 301 237 245 306 188 218 274 208 224 223 222 226 236 232 241 242 244 252 255 261 266 275 277 276 272 271 280 285 284 279 273
343 342 335 330 326 321 316 311 309 307 305 302 296 288 261 263 281 295 298 277 257 268 223 229 235 232 240 240 241 250 256 256 261 259 266 271 270 264 263 260 266 279 274 272 274
336 333 331 328 324 319 313 307 302 298 298 295 283 265 267 260 294 294 277 271 272 269 264 247 241 249 243 249 245 255 258 260 260 265 264 265 266 263 266 265 272 271 269 264 264
331 329 329 327 323 316 311 301 291 287 287 287 267 247 259 280 269 250 250 252 251 250 255 278 272 253 249 265 251 249 253 256 251 251 251 254 258 264 276 270 268 267 259 263 269
330 330 327 322 319 315 311 301 296 283 271 252 218 220 262 170 234 249 252 258 258 244 238 246 259 253 236 241 252 236 246 240 253 251 252 248 258 254 260 268 264 266 265 274 267
336 334 328 324 320 312 306 292 275 282 225 205 242 219 236 261 214 284 257 240 252 242 222 218 226 235 232 220 227 228 238 244 255 253 243 242 256 263 265 263 271 273 257 251 274
340 334 329 325 318 312 310 294 224 208 217 264 292 224 293 247 247 265 279 250 243 237 223 201 208 218 219 218 236 243 246 247 249 249 237 255 270 262 256 262 264 266 263 260 266
337 334 331 327 317 310 291 320 338 317 294 280 268 259 259 270 273 258 252 244 230 229 218 217 218 222 221 230 227 243 249 249 258 259 256 258 261 268 260 262 262 268 271 267 266
331 328 325 323 313 288 317 309 331 308 274 280 265 255 247 230 243 243 235 229 240 223 226 222 227 227 226 230 232 231 236 245 255 262 262 267 269 264 264 264 270 265 270 272 264
327 322 321 326 285 334 295 17 286 346 278 263 194 207 183 230 237 229 249 231 229 238 236 235 238 231 226 232 227 235 228 241 253 260 256 249 266 257 262 264 259 263 263 258 259
326 321 318 305 311 306 341 315 337 344 275 92 122 96 234 223 78 110 251 217 241 237 230 241 229 232 241 225 228 243 236 236 237 248 263 254 259 271 270 267 268 264 257 257 258
325 326 321 255 219 286 312 319 278 237 253 27 42 342 264 214 256 245 252 215 256 241 253 244 248 235 233 245 229 238 235 241 237 239 246 245 253 260 266 269 267 262 254 248 238
326 326 297 298 334 331 313 283 251 265 346 26 339 318 302 293 278 214 261 273 243 213 237 243 248 247 242 220 235 224 222 219 227 225 243 236 242 262 279 276 271 274 249 261 85
323 315 194 337 298 304 298 259 263 353 2 344 337 308 286 283 276 259 250 253 250 287 291 224 225 233 232 228 214 224 213 213 210 214 233 222 242 260 249 266 286 238 247 141 171
310 226 247 9 338 319 282 269 350 355 339 323 316 306 289 284 243 272 260 281 345 22 293 294 235 223 228 223 239 209 217 218 243 238 248 238 213 232 250 252 241 221 193 148 158
305 280 30 339 332 270 268 293 339 357 339 315 308 290 317 317 260 262 271 121 284 277 249 285 278 222 222 216 238 234 208 206 221 243 233 245 215 244 171 205 179 177 177 153 153
262 283 80 359 272 278 293 312 336 337 320 320 313 312 310 320 308 286 251 145 212 289 258 280 265 260 214 205 214 215 209 213 219 228 231 237 238 197 176 215 179 177 157 151 162
279 277 62 285 303 239 288 336 309 300 302 304 322 295 305 312 295 289 279 314 206 296 294 262 292 258 226 217 216 216 214 204 223 212 236 256 146 84 185 200 188 167 127 152 161
297 253 142 285 339 324 324 311 302 329 318 310 303 313 316 311 297 286 343 38 338 318 316 8 238 254 259 249 195 221 209 205 219 223 209 230 146 161 158 119 162 125 145 152 155
289 290 129 91 335 305 324 309 319 333 323 316 305 321 295 310 310 276 339 114 325 275 271 295 261 259 253 255 198 214 203 206 201 218 194 227 119 174 155 141 146 124 144 153 160
295 34 12 302 329 324 300 287 301 336 292 303 300 295 288 316 313 343 326 301 331 256 247 261 249 243 274 294 301 211 207 197 193 206 203 196 193 164 123 103 103 133 155 157 164
328 341 345 297 282 298 307 304 329 331 325 311 322 318 311 298 312 310 304 306 276 331 244 256 275 254 279 274 281 209 214 202 196 199 223 182 193 164 129 129 130 130 170 173 171
9 279 293 292 277 300 299 322 311 311 312 291 301 306 312 315 321 309 301 288 272 289 289 295 281 229 236 257 261 213 203 195 199 194 215 192 196 204 148 140 124 73 110 187 179